Regional Weather Roundup
Issued by NWS Green Bay, WI

Home | Current Version | Previous Version | Text Only | Print | Product List | Glossary On
Versions: 1 2 3 4 5 6 7 8 9 10 11 12 13 14 15 16 17 18 19 20 21 22 23 24 25 26 27 28 29 30 31 32 33 34 35 36 37 38 39 40 41 42 43 44 45 46 47 48 49 50
000
ASUS43 KGRB 211410
RWRGRB

NORTH-CENTRAL AND NORTHEAST WISCONSIN REGIONAL WEATHER ROUNDUP
NATIONAL WEATHER SERVICE GREEN BAY WI
900 AM CDT TUE OCT 21 2014

WIZ005-009-010>012-018-019-211500-
NORTH CENTRAL WISCONSIN

CITY           SKY/WX    TMP DP  RH WIND       PRES   REMARKS
IRONWOOD       CLOUDY    37  34  87 E6        30.23R
MANITOWISH WTR CLOUDY    36  35  94 NE5       30.23R
ARBOR VITAE    CLOUDY    39  36  88 CALM      30.22R
EAGLE RIVER    CLOUDY    37  34  87 NE12      30.22R
LAND O LAKES   CLOUDY    37  34  87 NE7       30.23S
RHINELANDER    CLOUDY    37  33  85 NE9       30.23R
PHILLIPS       CLOUDY    38  34  84 NE3       30.22R
ANTIGO         CLOUDY    38  34  84 NE13      30.21R
TOMAHAWK       CLOUDY    39  34  81 NE3       30.23R
MERRILL        CLOUDY    41  35  80 NE9       30.22R
$$

WIZ013-073-211500-
NORTHEAST WISCONSIN

CITY           SKY/WX    TMP DP  RH WIND       PRES   REMARKS
IRON MOUNTAIN  CLOUDY    40  33  76 N7        30.22R
MARINETTE      CLOUDY    43  34  70 N12G17    30.21R
OCONTO         CLOUDY    42  36  78 N12       30.21R
$$

WIZ017-030-035>037-045-211500-
CENTRAL WISCONSIN

CITY           SKY/WX    TMP DP  RH WIND       PRES   REMARKS
MEDFORD        CLOUDY    40  34  79 E10       30.21R
WAUSAU         CLOUDY    42  34  73 NE6       30.21R
MOSINEE        CLOUDY    41  36  81 NE10      30.22R
MARSHFIELD     CLOUDY    42  35  76 NE10      30.21R
WISC RAPIDS    CLOUDY    43  35  73 E9        30.23R
STEVENS POINT  CLOUDY    40  34  76 NE12      30.22R
WAUPACA        CLOUDY    44  38  77 NE6       30.22R
SHAWANO        CLOUDY    44  36  71 N10       30.22R
CLINTONVILLE   CLOUDY    43  34  70 N13       30.22R
$$

WIZ038-039-048-051-211500-
FOX VALLEY

CITY           SKY/WX    TMP DP  RH WIND       PRES   REMARKS
NWS GREEN BAY  CLOUDY    44  38  79 N12       30.21R
APPLETON       CLOUDY    43  34  70 N16       30.21R
OSHKOSH        CLOUDY    44  37  76 N12       30.20R
FOND DU LAC    CLOUDY    45  37  73 N14       30.20R
$$

WIZ022-050-052-211500-
EAST CENTRAL WISCONSIN

CITY           SKY/WX    TMP DP  RH WIND       PRES   REMARKS
STURGEON BAY   CLOUDY    45  34  65 N14G20    30.20R
MANITOWOC      CLOUDY    45  40  82 N10       30.18R
SHEBOYGAN      CLOUDY    45  39  79 N10       30.18R
$$

LMZ563-521-522-541>543-211500-
LAKESHORE

STATION/POSITION TIME  TEMP    WIND        PRES    VSBY  WAVE
                       AIR SEA DIR/SP/G                  HT/PER
                 (UTC) (F)     (DEG/KT/KT) (MB)    (MI)  (FT/S)
SHEBOYGAN LKSHOR 1400   46 49  350/ 17/ 21 1022.4R
KEWAUNEE LKSHORE 1400   45     360/ 10/ 16 1020.9R
NORTHPORT PIER   1400   44     360/ 17/ 21 1022.7R
N MID LAKE BUOY  1400   44 51   10/ 17/ 21 1022.1R         4/ 5
SISTER BAY LKSHO 1300           10/ 15/ 20   N/A
CHAMBERS ISLAND  1400   44     340/ 18/ 24 1022.7R
MENOMINEE LKSHOR 1400   44     350/ 20/ 25 1023.2R
$$



USA.gov is the U.S. government's official web portal to all federal, state and local government web resources and services.